Temperature
9 9 9 9 9 9 8 8 8 8 8 8 8 8 8 8 7 7 7 8 8 8 8 8 8 8 8 7 7 7 7 8 8 8 8 8 8 8 8 9 9 9 9
9 9 9 9 9 9 8 8 8 8 8 8 8 8 7 7 7 7 7 8 8 8 8 8 8 8 7 7 7 7 7 7 7 8 8 8 8 8 8 8 8 8 8
9 9 9 9 9 9 9 8 8 8 8 8 8 7 8 8 8 7 7 8 8 8 8 8 8 8 8 7 7 7 7 7 7 7 7 7 7 7 7 7 7 8 8
9 9 9 9 9 9 9 8 8 8 8 7 7 7 8 8 8 8 8 8 8 8 7 7 7 7 7 7 7 7 6 6 6 6 6 6 6 7 7 7 7 7 7
9 9 9 9 9 9 8 8 8 8 7 7 8 8 8 8 8 8 8 7 7 7 7 7 7 7 7 7 7 7 6 6 6 6 6 6 6 6 6 6 6 6 6
9 9 9 9 9 8 8 8 8 8 7 7 8 8 8 8 8 8 7 7 7 7 7 6 6 6 6 6 6 6 6 6 5 5 5 5 5 5 5 5 5 6 6
9 9 9 9 9 8 8 8 8 7 7 7 7 7 7 7 7 7 7 6 6 6 6 6 6 6 6 6 6 6 6 6 5 5 4 4 4 4 4 5 5 5 5
9 9 9 9 8 8 8 8 7 7 7 7 6 5 6 6 6 6 6 6 5 5 5 5 5 5 5 5 5 5 5 5 5 4 4 4 4 3 3 4 4 4 4
9 9 9 9 8 8 8 7 7 7 6 6 5 5 4 5 5 5 5 5 4 4 4 4 5 5 5 5 5 5 5 5 4 4 3 3 3 3 3 3 3 3 4
9 9 9 8 8 8 7 7 7 6 6 5 5 5 4 3 3 3 4 3 3 3 3 4 4 4 4 4 4 4 4 4 4 3 3 2 2 2 2 2 2 3 3
9 9 9 8 8 8 7 7 6 6 6 5 5 4 3 3 2 1 2 3 3 2 2 2 3 3 3 3 3 3 3 3 3 2 2 2 2 1 1 1 2 2 2
9 9 8 8 8 7 7 6 6 6 5 5 4 4 3 2 2 1 1 1 1 2 1 2 2 2 2 2 2 2 2 2 2 1 1 1 1 1 1 1 1 1 1
9 9 8 8 7 7 6 6 5 5 5 4 4 3 3 2 2 1 0 0 0 0 0 0 1 1 1 1 1 1 1 1 0 -0 -0 -0 -0 -0 -0 -0 -0 -0 -0
9 8 8 7 7 6 6 5 5 5 4 4 4 3 3 2 2 1 0 -1 -1 -1 -0 0 -0 -0 -0 -0 0 0 0 -0 -1 -1 -1 -1 -2 -1 -2 -1 -1 -1 -1
8 8 7 7 6 6 5 5 5 4 4 3 3 3 2 2 1 1 0 -1 -2 -2 -1 -1 -1 -1 -2 -2 -1 -1 -1 -1 -1 -2 -2 -2 -2 -2 -2 -2 -2 -2 -2
8 7 7 6 6 5 5 4 4 4 3 3 3 2 2 1 1 0 -0 -1 -2 -3 -3 -2 -2 -2 -2 -2 -2 -2 -2 -2 -2 -2 -2 -3 -3 -3 -3 -3 -3 -3 -2
7 7 6 6 5 5 4 4 4 3 3 2 2 2 1 1 0 0 -1 -1 -2 -3 -3 -3 -3 -3 -3 -3 -3 -4 -4 -4 -3 -3 -3 -3 -3 -4 -4 -4 -3 -3 -3
7 6 6 5 5 5 4 4 3 3 2 2 1 1 1 0 0 -0 -1 -2 -2 -3 -4 -4 -4 -4 -4 -4 -4 -5 -4 -4 -4 -4 -4 -4 -4 -4 -4 -4 -4 -4 -3
7 6 5 5 5 4 4 3 3 2 2 1 1 1 0 -0 -0 -1 -2 -2 -3 -3 -4 -4 -5 -5 -5 -5 -5 -5 -5 -5 -5 -5 -5 -5 -4 -4 -4 -4 -4 -4 -4
6 6 5 5 4 4 3 3 2 2 1 1 1 0 0 -0 -1 -1 -2 -3 -3 -4 -4 -5 -5 -5 -5 -5 -5 -5 -5 -5 -5 -5 -5 -5 -5 -5 -5 -4 -4 -4 -4
6 5 5 4 4 3 3 2 2 1 1 1 0 -0 -0 -1 -1 -2 -3 -3 -4 -5 -5 -5 -5 -5 -5 -5 -5 -5 -5 -5 -5 -6 -5 -5 -5 -5 -5 -5 -5 -5 -5
5 5 4 4 3 3 2 2 1 1 0 -0 -1 -1 -1 -1 -2 -2 -3 -4 -4 -5 -5 -5 -5 -5 -5 -6 -6 -6 -6 -6 -6 -6 -6 -6 -6 -6 -5 -5 -5 -5 -5
4 4 4 3 3 2 2 1 1 0 -0 -1 -1 -1 -2 -2 -3 -3 -3 -4 -5 -5 -5 -6 -6 -6 -6 -6 -6 -6 -6 -6 -6 -6 -6 -6 -6 -6 -6 -5 -5 -5 -5
4 4 3 3 2 2 1 1 0 -0 -1 -1 -2 -2 -2 -3 -3 -4 -4 -5 -5 -5 -6 -6 -6 -6 -6 -6 -6 -6 -6 -6 -6 -6 -6 -6 -6 -6 -6 -6 -6 -6 -5
3 3 2 2 2 1 1 0 -0 -1 -1 -2 -2 -2 -3 -3 -4 -5 -5 -6 -6 -6 -6 -6 -6 -6 -6 -6 -6 -6 -6 -7 -7 -7 -7 -7 -7 -7 -6 -6 -6 -6 -6
3 2 2 2 1 1 0 -0 -1 -2 -2 -2 -3 -3 -4 -4 -4 -5 -6 -6 -6 -6 -6 -6 -6 -6 -6 -6 -6 -6 -7 -7 -7 -7 -7 -7 -7 -8 -7 -7 -6 -6 -6
Wind_Speed
5 5 5 4 5 4 4 5 6 6 7 7 7 8 9 9 10 10 9 7 9 11 12 12 13 13 13 14 14 14 14 14 15 15 15 15 15 15 16 16 16 16 17
6 5 5 5 5 5 5 5 6 6 7 7 8 9 9 10 10 10 10 8 6 7 9 10 10 11 11 12 13 14 14 15 15 15 16 16 16 16 17 17 18 18 18
6 5 4 4 4 4 5 5 5 6 6 6 8 9 9 10 10 10 9 8 6 4 5 7 8 9 11 12 13 14 14 15 16 16 16 17 17 17 18 18 18 19 19
7 5 4 3 3 3 4 4 4 5 6 6 7 7 8 8 10 9 8 6 5 4 3 4 7 8 10 12 13 14 15 15 16 17 17 18 18 19 19 19 19 20 20
6 5 4 3 3 3 3 3 4 5 6 6 7 8 8 7 7 7 5 4 4 4 5 4 5 7 10 12 13 14 16 17 17 18 18 19 19 20 20 21 21 21 21
6 5 3 3 3 2 2 3 3 3 4 6 7 8 8 7 5 4 4 3 3 4 5 6 7 7 9 12 14 15 17 18 19 19 20 20 21 21 21 22 23 23 23
6 5 3 3 2 2 2 2 2 3 3 5 6 6 6 4 4 3 3 5 5 5 6 7 9 10 11 13 14 15 17 19 20 20 21 21 22 22 23 23 24 24 24
6 5 4 3 3 2 2 1 1 2 2 3 4 5 5 4 1 4 6 6 7 7 7 9 11 12 13 13 13 16 17 19 20 21 22 22 23 23 24 24 25 25 25
6 6 5 4 3 2 2 1 1 2 3 2 3 3 4 4 7 5 6 6 7 7 8 11 13 14 14 14 14 14 16 19 21 22 23 23 23 24 24 24 25 25 26
7 6 6 5 4 3 2 2 1 2 3 3 3 3 5 5 5 6 6 6 8 10 11 10 12 14 14 14 14 16 17 19 22 23 23 24 24 25 25 25 26 26 26
7 7 6 5 4 3 2 2 2 3 3 4 4 4 5 6 7 6 9 10 9 9 10 11 12 13 14 14 13 15 18 20 22 23 23 24 25 25 26 26 27 27 27
6 7 6 5 4 3 3 2 3 4 4 5 5 5 5 6 6 7 10 13 13 11 12 10 10 11 12 13 15 16 19 21 22 23 23 24 25 25 26 27 27 27 28
6 7 6 5 4 4 3 3 4 4 5 6 6 6 6 7 7 8 10 12 14 13 11 9 8 10 12 13 14 16 20 21 22 22 23 24 25 26 26 27 27 28 28
7 7 7 6 5 5 4 4 4 5 5 6 7 8 7 7 7 8 9 11 12 11 11 13 10 10 11 13 16 19 19 21 22 23 24 25 25 25 26 26 27 28 28
6 8 7 6 6 5 5 5 5 6 6 7 8 8 8 8 8 8 9 9 9 11 13 12 9 9 12 16 18 19 20 21 23 25 25 24 24 25 26 26 27 27 28
8 8 7 6 6 6 6 6 6 6 8 8 7 9 10 9 9 9 9 10 11 13 14 12 13 15 15 16 20 21 21 24 24 24 24 24 25 26 26 27 27 27 27
8 8 7 7 6 6 6 7 8 8 9 10 9 10 11 11 10 10 10 10 11 12 16 16 14 15 17 17 17 19 20 20 19 22 24 25 26 26 26 27 27 27 26
8 8 7 7 7 7 7 8 9 9 10 11 11 12 12 11 13 12 11 12 12 13 15 19 16 15 17 17 17 17 16 18 19 22 24 26 27 26 26 26 26 26 26
8 8 8 8 8 7 8 9 10 10 11 12 12 13 13 13 14 12 13 13 13 13 14 16 17 15 15 14 16 16 17 15 17 19 22 24 24 25 25 26 26 25 25
8 8 8 8 8 8 8 9 10 11 12 13 13 14 14 14 15 15 14 15 14 14 15 15 15 15 14 15 14 14 14 13 13 15 18 20 22 24 24 24 24 23 23
8 8 8 8 8 8 8 9 9 11 12 14 14 14 15 16 18 17 15 15 15 14 14 14 15 15 15 14 13 13 14 14 15 13 14 13 14 14 15 19 20 20 21
8 8 8 9 9 8 10 13 13 13 13 15 15 15 15 16 18 21 23 23 21 18 16 15 15 16 18 16 14 13 13 15 14 11 12 14 13 14 14 13 18 20 21
8 8 9 9 11 11 12 15 16 14 15 15 16 15 14 14 17 16 18 21 21 23 23 19 19 19 19 17 17 17 16 16 15 13 13 15 14 14 13 14 20 21 21
8 8 9 10 11 11 13 15 16 15 15 16 16 16 16 16 15 16 16 17 17 18 19 17 16 18 18 18 17 16 16 14 14 13 12 13 13 13 13 12 17 18 18
8 8 9 10 11 12 13 15 16 13 13 16 15 15 16 16 19 20 18 18 18 17 18 22 23 23 25 24 19 12 11 12 13 12 10 9 11 12 12 12 11 13 14
8 8 9 10 12 13 13 15 16 11 13 13 13 14 16 18 20 21 17 17 18 17 16 16 17 18 17 17 18 13 11 11 12 9 7 7 10 9 8 8 8 9 10
Wind_Direction
214 220 230 232 241 254 265 274 282 293 295 298 296 298 300 300 297 298 297 297 303 307 309 310 311 310 310 310 310 311 311 311 310 307 303 299 295 291 288 285 284 282 277
219 224 231 236 244 252 264 274 283 289 293 297 298 297 297 297 295 297 299 299 293 305 313 317 319 320 320 320 318 317 316 315 313 311 308 306 302 297 292 289 286 283 283
220 224 238 243 249 254 260 270 276 283 292 294 294 298 299 298 298 299 301 300 301 303 320 328 331 332 330 327 323 320 317 315 312 310 307 305 304 300 296 291 288 285 283
214 223 235 245 247 252 261 274 285 288 292 298 302 304 300 298 296 301 298 295 301 311 318 343 337 336 335 329 324 320 317 314 311 308 305 304 302 299 296 293 290 288 284
206 214 224 231 228 245 262 274 283 299 303 307 306 303 300 299 300 295 291 293 297 305 312 321 318 322 328 327 323 318 314 310 308 305 303 301 299 296 294 291 289 287 285
192 201 203 210 218 233 253 268 285 301 308 315 307 299 297 298 291 287 281 280 282 297 309 315 311 311 312 315 315 313 311 308 305 303 300 298 296 294 291 289 287 285 282
177 181 182 189 200 218 243 276 290 298 310 326 310 309 299 279 285 274 277 288 289 297 302 309 311 313 310 309 307 310 310 308 304 302 299 297 295 293 290 287 285 283 282
165 165 176 175 177 185 199 231 286 297 311 331 326 320 317 297 259 277 291 290 291 295 296 303 307 309 307 307 306 306 307 307 305 303 300 298 295 292 290 288 285 283 282
158 159 165 166 167 184 189 207 258 288 303 311 319 315 313 312 318 285 279 287 290 293 298 303 303 304 303 302 302 304 308 309 307 304 301 299 296 294 291 289 287 285 283
156 157 160 163 165 174 184 198 238 270 282 292 291 270 277 291 295 304 291 283 290 294 296 299 300 300 299 299 298 300 305 308 307 305 303 301 298 296 294 292 290 288 286
159 160 163 166 169 177 189 205 232 254 267 279 284 284 276 273 263 273 293 301 299 293 295 296 294 295 297 297 298 302 308 307 306 305 304 302 300 298 295 293 291 290 288
164 168 170 174 178 185 197 219 240 252 263 269 271 270 273 275 278 276 284 296 301 302 300 292 288 290 294 297 297 301 303 303 303 302 302 302 300 298 296 295 292 290 287
177 178 180 185 189 194 208 226 242 256 261 265 268 271 270 268 275 277 282 291 295 299 296 287 283 287 292 295 297 303 301 299 299 300 301 300 299 297 295 293 291 289 287
180 177 183 191 197 205 215 230 248 255 261 263 267 269 269 270 270 270 275 289 296 295 290 291 294 289 291 296 299 304 298 297 298 299 299 298 297 296 294 293 291 289 287
172 179 187 196 205 215 227 239 251 258 262 265 268 269 269 270 269 269 270 271 277 291 296 297 296 294 297 297 298 299 298 297 299 298 297 296 295 294 293 292 290 288 286
177 184 194 203 213 224 233 242 254 260 265 266 267 269 270 271 272 269 267 267 266 272 281 286 292 293 296 294 294 296 295 296 294 293 294 295 295 294 293 292 290 288 286
185 193 201 211 221 232 239 247 254 261 265 269 268 268 271 274 274 273 271 269 268 270 277 285 288 293 294 293 294 294 294 294 294 293 294 295 295 294 292 291 290 288 287
193 200 206 216 227 236 245 253 260 262 266 270 272 272 273 275 273 273 272 271 272 272 277 286 290 293 293 293 292 292 292 291 291 293 294 294 294 293 292 291 290 289 288
197 203 212 222 232 240 248 256 263 266 268 270 272 273 274 275 275 275 274 275 275 276 276 281 287 290 291 292 292 290 289 290 291 292 293 293 293 293 292 291 290 289 289
202 210 219 229 237 244 250 257 263 267 270 271 271 270 271 271 272 276 277 277 277 277 276 278 283 287 289 290 289 290 292 292 292 294 293 292 292 292 291 290 289 288 287
208 216 225 235 242 246 248 252 259 264 268 272 272 270 269 267 270 272 274 276 276 275 277 278 281 286 287 290 289 291 291 293 293 294 292 292 294 294 295 292 289 286 286
213 220 230 241 249 251 253 259 267 272 273 274 276 276 274 272 271 272 273 275 275 277 279 279 281 282 285 288 289 289 290 292 293 294 293 294 294 291 290 289 289 290 289
219 229 239 247 255 258 258 266 270 276 277 277 278 279 278 277 278 278 280 280 278 275 274 275 277 280 285 287 289 287 285 284 287 292 295 290 290 289 291 290 291 290 289
227 237 247 254 261 265 265 271 277 278 277 276 276 277 279 280 280 281 282 280 277 275 273 272 272 276 279 282 281 281 284 286 286 285 284 287 291 293 297 296 295 294 296
235 245 253 259 265 270 268 273 279 282 278 278 277 276 276 278 280 283 283 282 282 281 277 273 272 275 277 279 281 284 285 288 290 291 290 286 293 301 300 295 294 298 301
243 252 257 262 267 272 274 275 279 279 280 281 281 278 275 276 280 284 284 284 284 286 287 286 282 280 279 279 280 276 278 281 286 290 290 291 297 307 301 295 304 309 305
Height
1560 1560 1559 1559 1558 1558 1557 1556 1555 1554 1553 1551 1549 1548 1546 1544 1542 1540 1538 1535 1534 1532 1531 1529 1528 1527 1526 1525 1524 1524 1523 1522 1521 1520 1519 1518 1517 1517 1516 1515 1515 1515 1514
1558 1558 1558 1557 1557 1556 1555 1554 1553 1552 1550 1549 1547 1545 1543 1542 1539 1537 1535 1533 1530 1529 1527 1526 1525 1524 1522 1521 1520 1519 1518 1517 1516 1515 1514 1514 1513 1512 1511 1511 1510 1510 1510
1556 1556 1556 1555 1555 1554 1553 1552 1551 1549 1548 1546 1544 1543 1540 1538 1536 1534 1532 1530 1528 1526 1524 1523 1522 1520 1519 1517 1516 1515 1514 1513 1512 1511 1510 1509 1508 1507 1506 1506 1505 1505 1504
1554 1554 1554 1553 1552 1552 1551 1550 1548 1547 1545 1544 1542 1540 1537 1535 1533 1531 1529 1527 1525 1523 1522 1520 1518 1517 1515 1513 1512 1511 1509 1508 1507 1506 1505 1504 1503 1502 1501 1500 1500 1499 1499
1552 1552 1551 1551 1550 1549 1548 1547 1546 1545 1543 1541 1539 1536 1534 1532 1529 1527 1526 1524 1522 1521 1519 1517 1515 1513 1512 1510 1508 1506 1504 1503 1502 1500 1499 1498 1497 1496 1495 1494 1494 1493 1493
1549 1549 1549 1548 1547 1546 1545 1544 1543 1541 1540 1538 1536 1533 1531 1528 1526 1525 1523 1522 1520 1518 1517 1515 1513 1510 1508 1506 1503 1501 1499 1498 1496 1495 1493 1492 1491 1490 1489 1488 1487 1487 1486
1546 1546 1546 1545 1545 1544 1543 1542 1541 1539 1537 1535 1533 1530 1528 1525 1523 1522 1521 1520 1518 1516 1514 1511 1509 1506 1503 1501 1498 1496 1493 1491 1490 1488 1487 1485 1484 1483 1482 1481 1480 1480 1479
1543 1543 1543 1543 1542 1541 1540 1539 1538 1536 1535 1533 1531 1528 1527 1525 1522 1520 1518 1517 1515 1513 1511 1508 1505 1502 1499 1496 1493 1490 1488 1485 1483 1482 1480 1478 1477 1476 1475 1474 1473 1472 1472
1540 1540 1540 1540 1539 1538 1537 1536 1535 1534 1533 1531 1529 1529 1527 1524 1520 1517 1514 1512 1511 1509 1506 1503 1500 1497 1494 1490 1487 1484 1481 1479 1476 1475 1473 1471 1470 1469 1468 1467 1466 1465 1464
1537 1538 1537 1537 1536 1536 1535 1534 1533 1531 1530 1528 1527 1525 1525 1522 1519 1514 1511 1509 1506 1503 1501 1498 1494 1492 1488 1485 1481 1478 1475 1472 1470 1467 1466 1464 1462 1461 1460 1459 1458 1457 1456
1535 1535 1535 1534 1534 1533 1532 1531 1530 1528 1527 1525 1524 1522 1520 1518 1516 1513 1507 1504 1502 1499 1495 1492 1488 1485 1482 1479 1475 1472 1469 1465 1463 1460 1458 1456 1454 1453 1451 1450 1449 1448 1447
1531 1532 1532 1531 1531 1530 1529 1528 1527 1525 1524 1522 1520 1518 1516 1515 1512 1510 1505 1500 1496 1493 1490 1486 1482 1479 1476 1472 1469 1465 1462 1458 1456 1453 1450 1448 1446 1444 1442 1441 1440 1439 1438
1528 1529 1529 1528 1528 1527 1526 1525 1523 1522 1520 1518 1516 1514 1512 1510 1507 1505 1501 1496 1491 1487 1483 1480 1477 1473 1470 1467 1463 1459 1455 1451 1448 1446 1443 1440 1438 1436 1434 1432 1431 1430 1429
1525 1525 1525 1525 1524 1524 1523 1521 1520 1518 1516 1514 1512 1510 1507 1505 1502 1499 1496 1492 1486 1481 1479 1476 1473 1469 1465 1461 1457 1452 1448 1445 1442 1438 1436 1433 1430 1428 1426 1424 1422 1421 1420
1522 1522 1522 1521 1521 1520 1519 1517 1516 1514 1512 1510 1507 1505 1502 1500 1497 1494 1491 1488 1485 1477 1471 1469 1467 1463 1459 1455 1451 1447 1442 1439 1435 1432 1429 1426 1423 1420 1418 1416 1414 1413 1411
1518 1518 1518 1518 1517 1516 1515 1513 1511 1509 1507 1505 1502 1500 1497 1494 1491 1488 1485 1482 1479 1474 1467 1462 1460 1458 1453 1449 1445 1440 1436 1432 1428 1425 1422 1419 1416 1413 1411 1408 1406 1404 1403
1514 1514 1514 1513 1513 1511 1510 1508 1506 1504 1502 1500 1497 1494 1492 1489 1486 1482 1479 1476 1472 1468 1461 1454 1454 1450 1446 1442 1438 1434 1430 1426 1422 1419 1415 1412 1409 1406 1403 1401 1398 1396 1395
1510 1510 1509 1509 1508 1506 1505 1503 1501 1499 1496 1494 1491 1488 1485 1482 1479 1476 1472 1469 1465 1462 1457 1448 1445 1443 1439 1436 1431 1427 1423 1420 1416 1412 1409 1405 1401 1398 1395 1393 1390 1388 1387
1505 1505 1505 1504 1503 1501 1500 1498 1495 1493 1490 1488 1485 1482 1479 1476 1472 1469 1465 1462 1458 1454 1450 1444 1438 1436 1432 1429 1425 1421 1417 1413 1409 1406 1402 1398 1394 1391 1388 1385 1382 1380 1378
1500 1500 1499 1498 1497 1496 1494 1492 1489 1486 1484 1481 1478 1475 1471 1468 1465 1461 1458 1454 1451 1447 1443 1438 1432 1429 1426 1423 1419 1415 1410 1407 1403 1400 1396 1392 1388 1384 1381 1377 1375 1372 1370
1495 1494 1494 1493 1491 1489 1487 1485 1482 1479 1476 1473 1470 1467 1463 1460 1457 1454 1450 1446 1443 1439 1436 1431 1426 1422 1419 1416 1413 1409 1405 1400 1397 1394 1389 1386 1382 1378 1375 1371 1368 1365 1363
1489 1489 1488 1486 1485 1483 1481 1479 1476 1472 1469 1465 1462 1459 1455 1452 1448 1445 1442 1438 1436 1432 1428 1425 1420 1416 1412 1410 1407 1404 1399 1395 1389 1388 1384 1379 1377 1371 1368 1365 1362 1359 1356
1483 1482 1481 1480 1478 1476 1474 1472 1468 1465 1461 1457 1454 1451 1447 1444 1440 1436 1432 1429 1426 1423 1421 1418 1413 1409 1406 1404 1401 1397 1393 1389 1384 1381 1378 1372 1370 1365 1362 1359 1355 1352 1349
1477 1476 1475 1473 1471 1469 1467 1464 1461 1457 1453 1449 1446 1443 1439 1435 1432 1428 1424 1420 1417 1414 1412 1409 1405 1401 1399 1396 1394 1390 1386 1382 1378 1375 1373 1367 1363 1360 1357 1353 1350 1346 1344
1470 1469 1468 1466 1464 1461 1459 1456 1453 1448 1444 1440 1437 1434 1430 1427 1423 1420 1417 1412 1408 1405 1404 1401 1398 1394 1391 1389 1387 1384 1380 1376 1371 1369 1367 1363 1359 1355 1351 1348 1345 1342 1339
1464 1463 1461 1459 1456 1454 1452 1448 1445 1440 1435 1432 1428 1425 1422 1418 1415 1413 1409 1405 1401 1398 1395 1392 1389 1386 1383 1381 1379 1377 1373 1370 1367 1363 1361 1359 1355 1352 1346 1343 1341 1339 1336